Keps
Threads by month
- ----- 2025 -----
- February
- January
- ----- 2024 -----
- December
- November
- October
- September
- August
- July
- June
- May
- April
- March
- February
- January
- ----- 2023 -----
- December
- November
- October
- September
- August
- July
- June
- May
- April
- March
- February
- January
- ----- 2022 -----
- December
- November
- October
- September
- August
- July
- June
- May
- April
- March
- February
- January
- ----- 2021 -----
- December
- November
- October
- September
- August
- July
- June
- May
- April
- March
- February
- January
- ----- 2020 -----
- December
- November
- October
- September
- August
- July
- June
- May
- April
- March
- February
- January
- ----- 2019 -----
- December
- November
- October
- September
- August
- July
- June
- May
- April
- March
- February
- January
- ----- 2018 -----
- December
- November
- October
- September
- August
- July
- June
- May
- April
- March
- February
- January
- ----- 2017 -----
- December
- November
- October
- September
- August
- July
- June
- May
- April
- March
- February
- January
- ----- 2016 -----
- December
- November
- October
- September
- August
- July
- June
- May
- April
- March
- February
- January
- ----- 2015 -----
- December
- November
- October
- September
- August
- July
- June
- May
- April
- March
- February
- January
- ----- 2014 -----
- December
- November
- October
- September
- August
- July
- June
- May
- April
- March
- February
- January
- ----- 2013 -----
- December
- November
- October
- September
- August
- July
- June
- May
- April
- March
- February
- January
- ----- 2012 -----
- December
- November
- October
- September
- August
- July
- June
- May
- April
- March
- February
- January
- ----- 2011 -----
- December
- November
- October
- September
- August
- July
- June
- May
- April
- March
- February
- January
- ----- 2010 -----
- December
- November
- October
- September
- August
- July
- June
- May
- April
- March
- February
- January
- ----- 2009 -----
- December
- November
- October
- September
- August
- July
- June
- May
- April
- March
- February
- January
- ----- 2008 -----
- December
- November
- October
- September
- August
- July
- June
- May
- April
- March
- February
- January
- ----- 2007 -----
- December
- November
- October
- September
- August
- July
- June
- May
- April
- March
- February
- January
- ----- 2006 -----
- December
- November
- October
- September
June 2011
- 1 participants
- 8 discussions
SB KEPS @ AMSAT $ORB11174.N
2Line Orbital Elements 11174.AMSAT
HR AMSAT ORBITAL ELEMENTS FOR AMATEUR SATELLITES IN NASA FORMAT
FROM WA5QGD FORT WORTH,TX June 23, 2011
Send Subscribe/unsubscribe to KEPS at http://www.amsat.org/mailman/listinfo/keps
BID: ORB11174.N
DECODE 2-LINE ELSETS WITH THE FOLLOWING KEY:
1 AAAAAU 00 0 0 BBBBB.BBBBBBBB .CCCCCCCC 00000-0 00000-0 0 DDDZ
2 AAAAA EEE.EEEE FFF.FFFF GGGGGGG HHH.HHHH III.IIII JJ.JJJJJJJJKKKKKZ
KEY: A-CATALOGNUM B-EPOCHTIME C-DECAY D-ELSETNUM E-INCLINATION F-RAAN
G-ECCENTRICITY H-ARGPERIGEE I-MNANOM J-MNMOTION K-ORBITNUM Z-CHECKSUM
TO ALL RADIO AMATEURS BT
AO-07
1 07530U 74089B 11173.58288116 -.00000027 00000-0 10000-3 0 01115
2 07530 101.3914 179.9114 0011599 269.3927 090.5814 12.53582847674864
FO-29
1 24278U 96046B 11173.89703591 .00000035 00000-0 73695-4 0 06048
2 24278 098.5457 317.2526 0349653 242.3338 114.1903 13.52962642733231
SO-33
1 25509U 98061B 11173.47527645 .00000358 00000-0 57489-4 0 09979
2 25509 031.4351 214.4129 0354201 287.7846 068.4439 14.28420505661031
RS-22
1 27939U 03042A 11173.76056030 .00000241 00000-0 55060-4 0 03765
2 27939 097.8456 027.4921 0013166 332.8580 027.1940 14.63600557413156
VO-52
1 28650U 05017B 11173.69868201 .00000816 00000-0 10825-3 0 08293
2 28650 097.6411 216.5841 0027749 141.5305 218.7892 14.82093198331566
SO-67
1 35870U 09049F 11173.87509701 .00001161 00000-0 55648-4 0 09592
2 35870 097.2802 217.0457 0003064 037.9520 047.7137 15.20809695097806
HO-68
1 36122U 09072B 11173.78724506 -.00000044 00000-0 00000-0 0 04897
2 36122 100.4147 234.5143 0007402 209.5977 150.4712 13.16286873072977
UO-11
1 14781U 84021B 11173.75055549 .00000271 00000-0 42827-4 0 05813
2 14781 098.0057 230.4445 0009903 116.4052 243.8175 14.79988370466613
AO-16
1 20439U 90005D 11173.89164497 .00000022 00000-0 23909-4 0 02144
2 20439 098.3838 123.3189 0011256 142.1970 218.0004 14.31925232118439
LO-19
1 20442U 90005G 11173.97023732 .00000072 00000-0 42289-4 0 01318
2 20442 098.3472 127.7247 0012449 136.2933 223.9235 14.32150806118628
AO-27
1 22825U 93061C 11173.82047562 -.00000049 00000-0 -23029-5 0 08507
2 22825 098.5315 118.1596 0007505 259.1133 100.9213 14.29351389924998
IO-26
1 22826U 93061D 11173.88888031 .00000024 00000-0 26082-4 0 05912
2 22826 098.5247 118.6975 0007885 253.1597 106.8721 14.29614010925126
GO-32
1 25397U 98043D 11173.53642638 -.00000081 00000-0 -17941-4 0 05117
2 25397 098.3257 165.8117 0000297 227.4538 132.6608 14.23210788672726
NO-44
1 26931U 01043C 11173.77761823 .00000037 00000-0 46761-4 0 07832
2 26931 067.0537 329.1217 0006583 256.6493 103.3839 14.29665194507728
SO-50
1 27607U 02058C 11173.84111575 .00000192 00000-0 51332-4 0 04986
2 27607 064.5596 310.4935 0072888 320.0062 039.5643 14.71761785456923
CO-55
1 27844U 03031E 11173.59935379 .00000092 00000-0 62870-4 0 01377
2 27844 098.7045 182.2214 0009415 177.9854 182.1356 14.20818717413687
CO-57
1 27848U 03031J 11173.54359809 .00000085 00000-0 59596-4 0 00882
2 27848 098.7114 181.3564 0009394 182.1309 177.9827 14.20597444413625
AO-51
1 28375U 04025K 11173.94466845 .00000082 00000-0 37020-4 0 00037
2 28375 098.0984 152.0874 0085070 052.6417 308.2478 14.40763382366899
CP3
1 31129U 07012N 11173.72929552 .00000212 00000-0 58696-4 0 08992
2 31129 097.8981 197.6234 0103106 162.8450 197.6257 14.52500842221642
CO-65
1 32785U 08021C 11173.61460221 .00000677 00000-0 91779-4 0 00236
2 32785 097.8484 237.4044 0015261 153.9066 206.2953 14.82026705170343
PRISM
1 33493U 09002B 11173.83260957 .00000812 00000-0 10969-3 0 07027
2 33493 098.1262 302.5261 0020305 026.7727 333.4532 14.81742969130358
SOHLA-1
1 33496U 09002E 11173.90553762 .00000152 00000-0 33776-4 0 04449
2 33496 098.0812 283.6799 0007607 103.1595 257.0459 14.69627203129322
TISAT-1
1 36799U 10035E 11173.88121918 .00000583 00000-0 83020-4 0 09762
2 36799 098.1013 242.1884 0013889 257.7164 102.2481 14.80587522051150
STUDSAT
1 36801U 10035G 11173.82144711 .00001447 00000-0 19512-3 0 02123
2 36801 098.1071 241.9998 0012337 246.8264 113.1648 14.80691143051137
RAX
1 37223U 0 11152.36844328 .00000635 00000-0 96781-4 0 01738
2 37223 071.9713 073.6151 0021634 311.5989 048.3343 14.77415682028541
OOREOS
1 37224U 10062C 11153.29456974 .00000492 00000-0 77478-4 0 01796
2 37224 071.9726 071.8135 0020315 307.7637 052.1684 14.77036357028673
FO-69
1 37227U 0 11174.49370187 .00000158 00000-0 30566-4 0 00612
2 37227 071.9703 025.3633 0018615 269.1116 090.7913 14.76601460010251
NANOSALD
1 37361U 0 11172.19187209 .00063785 00000-0 47606-2 0 02468
2 37361 071.9561 024.7678 0045308 117.6218 242.4226 15.01675081022720
FO-70
1 37380U 0 11174.16957606 .00000174 00000-0 33081-4 0 01976
2 37380 071.9736 026.1917 0019122 267.1147 092.7826 14.76367501031744
NOAA-10
1 16969U 86073A 11173.67717469 .00000046 00000-0 36712-4 0 05455
2 16969 098.6184 203.3893 0011682 206.0557 154.0033 14.27465908288437
NOAA-11
1 19531U 88089A 11173.78697994 .00000224 00000-0 13831-3 0 05425
2 19531 098.7514 261.1448 0011421 168.3511 191.7928 14.14919442173541
NOAA-12
1 21263U 91032A 11173.98172254 .00000033 00000-0 32509-4 0 00541
2 21263 098.7477 191.8163 0012474 165.9556 194.1973 14.25719806045233
MET-3/5
1 21655U 91056A 11173.83156228 .00000051 00000-0 10000-3 0 01417
2 21655 082.5572 046.7873 0014110 137.9432 222.2773 13.17031602954468
MET-2/21
1 22782U 93055A 11173.82456501 .00000092 00000-0 69947-4 0 01292
2 22782 082.5492 318.4038 0024094 083.6857 276.7061 13.83659406899332
OKEAN-4
1 23317U 94066A 11173.96670442 .00000310 00000-0 34921-4 0 05940
2 23317 082.5398 007.7416 0023779 098.5484 261.8432 14.83090400901403
NOAA-14
1 23455U 94089A 11173.90954552 .00000046 00000-0 47597-4 0 05409
2 23455 098.8523 256.4885 0008528 264.8119 095.2080 14.13823015849887
NOAA-15
1 25338U 98030A 11173.92309387 .00000241 00000-0 12187-3 0 08601
2 25338 098.6539 159.9858 0011692 076.9272 283.3226 14.24925921681549
RESURS
1 25394U 98043A 11173.93842329 -.00000033 00000-0 31285-5 0 08383
2 25394 098.2983 176.6434 0000735 169.3339 190.7856 14.24234835673125
FENGYUN1
1 25730U 99025A 11173.92474677 .00000913 00000-0 55437-3 0 03692
2 25730 098.8169 134.9942 0023046 301.4798 058.4118 14.08645122623875
OKEAN-0
1 25860U 99039A 11173.93268081 .00000113 00000-0 24709-4 0 03480
2 25860 097.8854 140.2197 0001258 038.1983 321.9314 14.73795584641508
NOAA-16
1 26536U 00055A 11173.88494827 -.00000207 00000-0 -86505-4 0 03426
2 26536 099.1387 204.5427 0010731 021.7530 338.4100 14.12624726554160
NOAA-17
1 27453U 02032A 11173.72607734 .00000068 00000-0 47287-4 0 03313
2 27453 098.3781 213.1826 0012561 130.0010 230.2289 14.24284291467440
NOAA-18
1 28654U 05018A 11173.77098495 .00000488 00000-0 29363-3 0 08110
2 28654 098.9958 124.9313 0015247 088.5657 271.7263 14.11487611313713
NOAA-19
1 33591U 09005A 11173.76939019 -.00000008 00000-0 19653-4 0 00024
2 33591 098.8260 113.8301 0013809 324.6040 035.4230 14.11176028122174
HUBBLE
1 20580U 90037B 11172.77132387 .00000745 00000-0 43704-4 0 7844
2 20580 028.4728 346.5038 0003524 168.1964 191.8764 15.01399279960340
ISS
1 25544U 98067A 11173.84950508 .00008727 00000-0 10329-3 0 05877
2 25544 051.6425 132.1734 0011045 275.9893 126.1217 15.62102585721791
CO-58
1 28895U 05043F 11173.61609670 .00000175 00000-0 45663-4 0 09072
2 28895 097.9645 049.7957 0017281 200.6860 159.3626 14.60119380301038
FALCON
1 30776U 07006E 11173.81610133 .00001338 00000-0 96139-4 0 01227
2 30776 035.4348 312.7516 0000308 056.6900 303.3846 15.04693454235899
